{"data":{"norad_id":65214,"epoch":"2026-05-24T18:17:06.800064Z","epoch_age_seconds":105914,"freshness":"FRESH","line1":"1 65214U 25176S   26144.76188426  .00021314  00000+0  63983-3 0  9990","line2":"2 65214  53.1596 158.9457 0001259  80.3949 279.7196 15.34416690 44714","mean_motion":15.3441669,"eccentricity":0.0001259,"inclination_deg":53.1596,"raan_deg":158.9457,"arg_perigee_deg":80.3949,"mean_anomaly_deg":279.7196,"bstar":0.00063983,"rev_number":4471,"period_min":93.846737290116,"perigee_km":461.79237891861,"apogee_km":463.51489000037,"semimajor_km":6840.7906344595,"source":"CELESTRAK","updated_at":"2026-05-25T13:38:20.721025Z"}}